User: anonymous   Login
Location: Unspecified
(0.0000°N, 0.0000°E)
Time: 14:59:49
(UTC+00:00)
Language:

USA 247 - Orbit

View from above orbital plane
View from above orbital plane
View from above satellite
View from above satellite

Ground track
Ground track

The orbit data is extracted from the following two-line orbital elements,

1 39462U 13072A   18255.42372344 0.00000000  00000-0  00000-0 0    00
2 39462 123.0006 228.6216 0003000 112.8753 247.1246 13.41423816    04
Epoch (UTC): 12 September 2018 10:10:09
Eccentricity: 0.0003000
inclination: 123.0006°
perigee height: 1102 km
apogee height: 1106 km
right ascension of ascending node: 228.6216°
argument of perigee: 112.8753°
revolutions per day: 13.41423816
mean anomaly at epoch: 247.1246°
orbit number at epoch: 0

The dashed part of the orbit path shows where the satellite is in the earth's shadow,  

DLR